Weather History for Lincoln, NE

Change the Weather History Date:

Friday, March 8, 2013

  Actual Average Record
Temperature  
Mean Temperature 44 °F 37 °F  
Max Temperature 62 °F 49 °F 79 °F (1977)
Min Temperature 25 °F 25 °F -8 °F (1995)
Degree Days  
Heating Degree Days 21 28  
Month to date heating degree days 261 235  
Since 1 July heating degree days 4889 4938  
Cooling Degree Days 0 0  
Month to date cooling degree days 0 0  
Year to date cooling degree days 0 0  
Moisture  
Dew Point 33 °F    
Average Humidity 64    
Maximum Humidity 88    
Minimum Humidity 39    
Precipitation  
Precipitation 0.14 in 0.05 in 0.80 in (1999)
Month to date precipitation 0.17 0.35  
Year to date precipitation 1.44 1.76  
Snow  
Snow 0.00 in 0.20 in - ()
Month to date snowfall 0.2 1.4  
Since 1 July snowfall 17.0 21.1  
Snow Depth 0.00 in    
Sea Level Pressure  
Sea Level Pressure 30.04 in    
Wind  
Wind Speed 11 mph (SE)    
Max Wind Speed 24 mph    
Max Gust Speed 31 mph    
Visibility 6 miles    
Events Rain    
T = Trace of Precipitation, MM = Missing Value Source: NWS Daily Summary

Daily Weather History Graph

Daily Weather History Graph

Search for Another Location

Airport:

Trip Planner

Search our weather history database for the weather conditions in past years. The results will help you decide how hot, cold, wet, or windy it might be!

Date:

Astronomy

Mar. 08, 2013 Rise Set
Actual Time 6:49 AM CST 6:26 PM CST
Civil Twilight 6:22 AM CST 6:53 PM CST
Nautical Twilight 5:50 AM CST 7:25 PM CST
Astronomical Twilight 5:18 AM CST 7:57 PM CST
Moon 4:35 AM CST (3/8) 3:21 PM CST (3/8)
Length of Visible Light 12h 31m
Length of Day
11h 36m
Waning Crescent, 11% of the Moon is Illuminated
Mar 8
Waning Crescent
Mar 11
New
Mar 19
First Quarter
Mar 27
Full
Apr 2
Last Quarter

Hourly Weather History & Observations

Time (CST) Temp. Windchill Dew Point Humidity Pressure Visibility Wind Dir Wind Speed Gust Speed Precip Events Conditions
12:54 AM 32.0 °F 25.6 °F 25.0 °F 75% 30.19 in 8.0 mi SE 6.9 mph - N/A   Clear
1:54 AM 32.0 °F 26.4 °F 25.0 °F 75% 30.19 in 8.0 mi ESE 5.8 mph - N/A   Clear
2:54 AM 32.0 °F 26.4 °F 25.0 °F 75% 30.17 in 8.0 mi ESE 5.8 mph - N/A   Clear
3:54 AM 30.9 °F 25.2 °F 25.0 °F 79% 30.16 in 7.0 mi East 5.8 mph - N/A   Clear
4:54 AM 30.0 °F 24.1 °F 25.0 °F 82% 30.14 in 7.0 mi East 5.8 mph - N/A   Clear
5:54 AM 25.0 °F 19.3 °F 21.9 °F 88% 30.16 in 6.0 mi ENE 4.6 mph - N/A   Clear
6:54 AM 30.0 °F 24.1 °F 25.0 °F 82% 30.15 in 6.0 mi East 5.8 mph - N/A   Haze
7:54 AM 33.1 °F 30.0 °F 27.0 °F 78% 30.15 in 5.0 mi East 3.5 mph - N/A   Haze
8:54 AM 37.9 °F 35.5 °F 28.0 °F 68% 30.16 in 6.0 mi SE 3.5 mph - N/A   Haze
9:54 AM 46.0 °F 41.9 °F 30.0 °F 54% 30.14 in 6.0 mi SE 8.1 mph - N/A   Haze
10:54 AM 50.0 °F - 30.2 °F 47% 30.11 in 6.0 mi SE 9.2 mph - N/A   Haze
11:54 AM 52.0 °F - 32.0 °F 47% 30.11 in 6.0 mi SE 12.7 mph - N/A   Haze
12:54 PM 54.0 °F - 33.1 °F 45% 30.07 in 6.0 mi SE 12.7 mph - N/A   Haze
1:54 PM 57.0 °F - 34.0 °F 42% 30.04 in 7.0 mi SE 9.2 mph - N/A   Clear
2:54 PM 60.1 °F - 36.0 °F 41% 30.01 in 7.0 mi SE 12.7 mph - N/A   Clear
3:54 PM 59.0 °F - 37.9 °F 46% 29.97 in 8.0 mi SE 17.3 mph - N/A   Mostly Cloudy
4:54 PM 57.9 °F - 39.0 °F 49% 29.96 in 8.0 mi SE 18.4 mph 23.0 mph N/A   Mostly Cloudy
5:54 PM 54.0 °F - 37.9 °F 55% 29.96 in 6.0 mi SE 18.4 mph 31.1 mph N/A   Haze
6:54 PM 53.1 °F - 37.9 °F 57% 29.96 in 8.0 mi SE 16.1 mph 24.2 mph N/A   Overcast
7:54 PM 48.9 °F - 36.0 °F 61% 29.96 in 8.0 mi SE 21.9 mph 27.6 mph N/A   Overcast
8:26 PM 48.2 °F - 35.6 °F 62% 29.95 in 8.0 mi SE 15.0 mph 24.2 mph N/A   Overcast
8:54 PM 48.0 °F - 35.1 °F 61% 29.96 in 8.0 mi SE 16.1 mph 25.3 mph N/A   Overcast
9:42 PM 46.4 °F 40.1 °F 39.2 °F 76% 29.94 in 7.0 mi SE 15.0 mph - 0.00 in Rain Light Rain
9:54 PM 45.0 °F 37.9 °F 39.0 °F 80% 29.96 in 5.0 mi SE 16.1 mph 21.9 mph 0.01 in Rain Rain
10:22 PM 44.6 °F 38.8 °F 39.2 °F 81% 29.94 in 6.0 mi SE 11.5 mph - 0.03 in Rain Light Rain
10:54 PM 44.1 °F 38.6 °F 39.9 °F 85% 29.93 in 4.0 mi SE 10.4 mph - 0.05 in Rain Light Rain
11:04 PM 44.6 °F 39.7 °F 41.0 °F 87% 29.91 in 2.5 mi SSE 9.2 mph - 0.06 in Rain Light Rain
11:12 PM 44.6 °F 40.2 °F 41.0 °F 87% 29.91 in 5.0 mi SSE 8.1 mph - 0.07 in Rain Light Rain
11:54 PM 44.1 °F 40.8 °F 42.1 °F 93% 29.91 in 3.0 mi SE 5.8 mph - 0.08 in   Overcast